User: anonymous   Login
Location: Unspecified
(0.0000°N, 0.0000°E)
Time: 22:34:56
(UTC+00:00)
Language:

USA 229 - Orbit

View from above orbital plane
View from above orbital plane
View from above satellite
View from above satellite

Ground track
Ground track

The orbit data is extracted from the following two-line orbital elements,

1 37386U 11014A   15023.18694623 0.00000000  00000-0  00000-0 0    07
2 37386  63.4425  84.8318 0010004 142.5632 217.4368 13.40672365    01
Epoch (UTC): 23 January 2015 04:29:12
Eccentricity: 0.0010004
inclination: 63.4425°
perigee height: 1099 km
apogee height: 1114 km
right ascension of ascending node: 84.8318°
argument of perigee: 142.5632°
revolutions per day: 13.40672365
mean anomaly at epoch: 217.4368°
orbit number at epoch: 0

The dashed part of the orbit path shows where the satellite is in the earth's shadow,  

DLR